#timestamp,LO_Frequency,Hit,StdDev 
1504879215.3,286046999.6,P,1.2
1504879235.1,286046998.7,N,1.2
1504879255.9,286046996.6,N,1.1
1504879275.7,286046997.1,N,1.1
1504879295.5,286046996.7,Y,0.0
1504879315.4,286046998.6,P,0.5
1504879335.2,286046998.8,N,0.6
1504879355.1,286046998.5,N,0.5
1504879356.0,286046998.5,Y,0.0
1504879375.8,286047000.2,P,0.9
1504879395.6,286046998.2,N,0.9
1504879415.5,286046998.1,N,0.9
1504879435.3,286046999.0,N,0.8
1504879455.2,286046999.6,N,0.8
1504879475.9,286046999.3,N,0.7
1504879495.7,286046998.7,N,0.7
1504879515.6,286046998.6,N,0.7
1504879535.7,286047000.4,N,0.8
1504879555.5,286047001.0,N,0.9
1504879575.3,286046998.2,N,0.9
1504879595.2,286047000.8,N,1.0
1504879615.0,286047000.7,N,1.0
1504879615.9,286047000.7,N,1.0
1504879635.8,286047002.4,N,1.2
1504879655.6,286046999.8,N,1.2
1504879675.4,286047002.3,N,1.3
1504879695.3,286047000.3,N,1.3
1504879715.1,286047001.2,N,1.3
1504879735.8,286046998.5,N,1.3
1504879755.7,286046998.3,N,1.3
1504879775.5,286046999.1,N,1.3
1504879795.4,286046999.2,N,1.3
1504879815.2,286046996.9,N,1.4
1504879835.0,286046997.1,N,1.4
1504879835.9,286046997.1,N,1.5
1504879855.8,286046997.6,N,1.5
1504879875.6,286046995.0,Y,0.0
1504879895.5,286046997.2,P,1.1
1504879915.3,286046999.3,N,1.0
1504879935.1,286046999.4,N,0.9
1504879955.9,286046998.3,N,0.9
1504879975.7,286046998.4,N,0.8
1504879995.5,286046998.5,N,0.7
1504880015.4,286046998.8,N,0.7
1504880035.2,286046999.2,N,0.7
1504880055.1,286046997.7,Y,0.0
1504880056.0,286046997.7,P,0.5
1504880075.8,286046998.7,N,0.5
1504880095.7,286046999.5,N,0.6
1504880115.5,286046999.0,N,0.6
1504880135.3,286046999.6,N,0.6
1504880155.2,286046999.2,N,0.6
1504880175.0,286046998.7,N,0.6
1504880175.9,286046998.7,N,0.5
1504880195.8,286046998.1,Y,0.0
1504880215.6,286047001.0,P,1.1
1504880235.4,286047002.5,N,1.5
1504880255.3,286047002.3,N,1.4
1504880275.1,286047002.4,N,1.4
1504880295.9,286042879.4,Y,0.0
1504880315.7,286046999.1,P,1.2
1504880335.5,286046997.0,N,1.8
1504880355.4,286046997.6,N,1.7
1504880375.2,286046997.8,N,1.6
1504880395.1,286046996.6,N,1.6
1504880396.0,286046996.6,N,1.6
1504880415.8,286046996.6,N,1.6
1504880435.6,286046999.6,N,1.6
1504880455.5,286046999.2,N,1.5
1504880475.3,286046996.5,N,1.5
1504880495.2,286046999.4,N,1.5
1504880515.0,286046996.5,N,1.5
1504880515.9,286046996.5,N,1.5
1504880535.8,286046997.3,N,1.5
1504880555.6,286046997.1,N,1.4
1504880575.4,286046997.1,N,1.4
1504880595.3,286046999.6,N,1.4
1504880615.1,286046999.5,N,1.4
1504880635.9,286046997.3,N,1.4
1504880655.7,286046998.0,N,1.4
1504880675.5,286046997.5,N,1.4
1504880695.4,286046999.2,N,1.3
1504880715.2,286046996.5,N,1.4
1504880735.1,286046996.9,N,1.3
1504880736.0,286046996.9,N,1.3
1504880755.8,286046997.0,N,1.3
1504880775.6,286046994.9,Y,0.0
1504880795.5,286046999.4,P,0.8
1504880815.3,286046996.6,P,1.1
1504880835.1,286046997.1,N,1.1
1504880855.9,286046997.9,N,0.9
1504880875.7,286046995.1,Y,0.0
1504880895.6,286046999.1,P,0.7
1504880915.4,286046996.6,P,1.0
1504880935.2,286046999.4,N,1.1
1504880955.1,286046998.5,N,1.0
1504880956.0,286046998.5,N,0.9
1504880975.8,286046998.4,N,0.9
1504880995.7,286046998.3,N,0.8
1504881015.5,286047000.8,N,1.1
1504881035.3,286047000.7,N,1.2
1504881055.2,286047000.6,N,1.3
1504881075.0,286047002.3,N,1.5
1504881075.9,286047002.3,N,1.7
1504881095.8,286047001.5,N,1.7
1504881115.6,286047001.3,N,1.7
1504881135.4,286047001.9,N,1.7
1504881155.3,286047001.6,N,1.7
1504881175.1,286047002.2,N,1.7
1504881195.8,286047001.6,N,1.7
1504881215.7,286047002.0,N,1.7
1504881235.5,286047001.4,N,1.7
1504881255.4,286047004.4,N,1.9
1504881275.2,286047004.1,N,2.0
1504881295.0,286047004.2,N,2.1
1504881295.9,286047004.2,N,2.1
1504881315.8,286047004.0,N,2.2
1504881335.6,286047001.4,N,2.1
1504881355.5,286047004.3,N,2.2
1504881375.3,286047003.8,N,2.2
1504881395.1,286047001.7,N,2.1
1504881415.9,286047001.8,N,2.0
1504881435.7,286047003.9,N,2.0
1504881455.5,286047003.9,N,1.9
1504881475.4,286047004.2,N,1.9
1504881495.2,286047004.1,N,1.8
1504881515.1,286047004.2,N,1.7
1504881516.0,286047004.2,N,1.5
1504881535.8,286047003.5,N,1.3
1504881555.6,286047005.9,Y,0.0
1504881575.5,286047001.9,P,0.4
1504881595.3,286047002.6,P,0.4
1504881615.2,286047002.1,P,0.3
1504881635.9,286047001.5,Y,0.0
1504881655.7,286046998.4,P,2.0
1504881675.6,286046998.4,N,1.9
1504881695.4,286047001.2,N,1.7
1504881715.3,286047001.2,N,1.6
1504881735.1,286047000.9,N,1.5
1504881736.0,286047000.9,N,1.4
1504881755.8,286047000.8,N,1.3
1504881775.7,286047000.7,N,1.2
1504881795.5,286047000.0,N,1.2
1504881815.3,286047000.1,N,1.1
1504881835.2,286047000.0,N,1.1
1504881855.0,286047000.7,N,1.0
1504881855.9,286047000.7,N,1.0
1504881875.8,286047002.6,N,1.1
1504881895.6,286047002.5,N,1.2
1504881915.4,286047001.5,N,1.2
1504881935.3,286047002.3,N,1.2
1504881955.1,286047002.1,N,1.2
1504881975.9,286046999.8,N,1.2
1504881995.7,286047002.7,N,1.2
1504882015.5,286047002.5,N,1.2
1504882035.4,286046999.7,N,1.2
1504882055.2,286047000.1,N,1.2
1504882075.0,286047000.1,N,1.2
1504882075.9,286047000.1,N,1.2
1504882095.8,286047001.6,N,1.2
1504882115.6,286047002.7,N,1.2
1504882135.5,286047002.7,N,1.2
1504882155.3,286047000.0,N,1.2
1504882175.1,286047001.9,N,1.2
1504882195.9,286047002.0,N,1.1
1504882215.7,286047002.2,N,1.0
1504882235.6,286047001.6,N,1.0
1504882255.4,286047001.9,N,1.0
1504882275.2,286047002.2,N,1.0
1504882295.1,286047001.6,N,1.0
1504882296.0,286047001.6,N,1.0
1504882315.8,286047002.2,N,1.0
1504882335.6,286047001.6,N,1.0
1504882355.5,286047002.8,N,1.0
1504882375.3,286047001.4,N,1.0
1504882395.2,286047001.9,N,0.9
1504882415.0,286047004.4,Y,0.0
1504882415.9,286047004.4,P,1.4
1504882435.8,286047002.4,N,1.2
1504882455.6,286047002.5,N,1.0
1504882475.4,286047002.1,N,0.9
1504882495.3,286047002.3,N,0.9
1504882515.1,286047000.1,N,1.2
1504882535.9,286047002.0,N,1.1
1504882555.7,286047001.6,N,1.1
1504882575.5,286047001.9,N,1.0
1504882595.4,286047001.8,N,1.0
1504882615.2,286047002.6,N,0.9
1504882635.0,286047001.5,N,0.9
1504882635.9,286047001.5,N,0.9
1504882655.8,286047001.8,N,0.9
1504882675.6,286047004.3,Y,0.0
1504882695.5,286047000.0,P,1.0
1504882715.3,286047000.1,N,0.9
1504882735.1,286047000.6,N,0.8
1504882755.9,286047000.6,N,0.7
1504882775.7,286047000.8,N,0.7
1504882795.6,286047000.6,N,0.6
